Погода в Лисце

Украина / Ивано-Франковская область     48°52′17″N   24°36′16″E
темп.,
°C
ветер,
м/с
пор.,
м/с
влажн.,
%
обл.,
%
осадки,
мм/ч
давл.,
гПа
погр.,
м
30 ноября, вт
вт3023:000зсз6127133 0.0 1001756
02:00−1з49695 0.0 1002420
05:00−1зсз4867100 0.0 1003309
08:00−1зсз496988 0.0 1005372
11:00+2зсз6105775 0.0 10051550
14:00+3з694724 0.1 10041844
17:000зюз411575 0.0 1002470
20:00+1юз112154100 0.0 9981077
1 декабря, ср
ср123:00+2зюз142253100 0.0 9961038
02:00+2зюз91654100 0.0 9971090
05:00+3з9175783 0.0 9991315
08:00+1зсз7147597 0.2 10031200
11:00+3зсз6116287 0.0 10061314
14:00+5зсз5104734 0.0 10061620
17:00+1ююв226399 0.0 100518
20:00+2юв2369100 0.1 100484
2 декабря, чт
чт223:00+4юз2867100 0.0 1002376
02:00+4св2272100 0.0 100220
05:00+4ююз3777100 0.0 1001295
08:00+5юз51566100 0.1 999541
11:00+8юз4116072 0.0 1001957
14:00+7ю3766100 0.0 1001943
17:00+6юв2479100 0.0 100191
20:00+6ююв2382100 0.1 100066
3 декабря, пт
пт323:00+6ююв2280100 0.1 99938
02:00+6ю2382100 0.2 99884
05:00+5с1291100 1.8 99840
08:00+1ссз51197100 2.5 1002385
11:00+2зсз3998100 2.3 1005408
14:00+1сз61290100 3.8 1008724
17:000сз5107893 0.1 1011591
20:00−2зсз138597 0.1 101380
4 декабря, сб
сб423:00−4юз228819 0.0 101516
02:00−4юз22855 0.0 101519
05:00−4ююз22809 0.0 101517
08:00−5ю11842 0.0 101414
11:00−1юв23685 0.0 1013304
14:00+1вюв346217 0.0 1011443
17:00−3юв117798 0.0 101111
20:00−3ю1181100 0.0 101115